Find Starlink 30039

NORAD ID: 57468 Int'l Des: 2023-107 Owner: SPXS Country: US Constellation: starlink operational
LEOCIRCULAR

当前视图

正在加载3D地球...

关于 Starlink 30039

正在加载描述...

即将过境

Passes for default location (London). Set your location on the main map for personalized predictions.

高度历史

Loading altitude history...

两行轨道根数

1 57468U 23107M 26158.78690573 -.00000752 00000-0 -17813-4 0 9990
2 57468 43.0046 187.5101 0001574 273.4124 86.6547 15.27572894158923
Epoch: Jun 7, 2026 • Age: 22 hours

当前状态

高度 484.7 km
速度 7.63 km/s
星下点 31.82°N, 70.49°E
发射日期 Jul 28, 2023
运行时间 2.8 years
类型 internet

技术详情

分类 Payload
质量 730.00 kg
干质量 700.00 kg
总质量 730.00 kg
长度 0.30 m
直径 4.10 m
跨度 29.00 m
形状 Box + pan
制造商 SPXS
平台类型 Starlink V2M
阶段状态 In Orbit
所有者/国家 SPXS/US

Most Searched